Probability
0 0 0 0 0 0 0 0 0 0 0 0 0 0 0 0 0 0 0 0 0 0 0 0 0 1 3 6 9 9 8 8 9 9 5 2 0 0 0 0 0 0 0 0
0 0 0 0 0 0 0 0 0 0 0 0 0 0 0 0 0 0 0 0 0 0 0 0 0 1 3 5 8 9 8 8 8 9 7 3 1 0 0 0 0 0 0 0
0 0 0 0 0 0 0 0 0 0 0 0 0 0 0 0 0 0 0 0 0 0 0 0 0 0 1 3 5 7 8 8 7 8 8 4 1 0 0 0 0 0 0 0
0 0 0 0 0 0 0 0 0 0 0 0 0 0 0 0 0 0 0 0 0 0 0 0 0 0 0 1 3 4 6 7 7 7 7 5 2 0 0 0 0 0 0 0
0 0 0 0 0 0 0 0 0 0 0 0 0 0 0 0 0 0 0 0 0 0 0 0 0 0 0 1 2 3 4 6 8 7 5 4 2 0 0 0 0 0 0 0
0 0 0 0 0 0 0 0 0 0 0 0 0 0 0 0 0 0 0 0 0 0 0 0 0 0 0 0 1 3 4 6 7 7 5 3 2 1 0 0 0 0 0 0
0 0 0 0 0 0 0 0 0 0 0 0 0 0 0 0 0 0 0 0 0 0 0 0 0 0 0 0 1 2 3 5 6 6 6 4 3 1 0 0 0 0 0 0
0 0 0 0 0 0 0 0 0 0 0 0 0 0 0 0 0 0 0 0 0 0 0 0 0 0 0 0 1 3 3 4 5 5 6 5 3 1 0 0 0 0 0 0
0 0 0 0 0 0 0 0 0 0 0 0 0 0 0 0 0 0 0 0 0 0 0 0 0 0 0 1 2 3 3 3 3 3 5 5 3 1 1 1 0 0 0 0
0 0 0 0 0 0 0 0 0 0 0 0 0 0 0 0 0 0 0 0 0 0 0 0 0 0 0 1 3 3 3 2 1 2 4 5 4 3 2 2 1 0 0 0
0 0 0 0 0 0 0 0 0 0 0 0 0 0 0 0 0 0 0 0 0 0 0 0 0 0 0 2 3 3 3 1 0 1 3 5 5 4 3 3 1 1 0 0
0 0 0 0 0 0 0 0 0 0 0 0 0 0 0 0 0 0 0 0 0 0 0 0 0 0 0 1 2 3 2 1 0 0 1 4 4 3 3 3 3 2 1 0
0 0 0 0 0 0 0 0 0 0 0 0 0 0 0 0 0 0 0 0 0 0 0 0 0 0 0 0 1 2 2 1 0 0 1 3 3 2 2 3 3 3 2 1
0 0 0 0 0 0 0 0 0 0 0 0 0 0 0 0 0 0 0 0 0 0 0 0 0 0 0 0 0 1 1 0 0 0 1 2 2 1 1 2 3 3 3 3
0 0 0 0 0 0 0 0 0 0 0 0 0 0 0 0 0 0 0 0 0 0 0 0 0 0 0 0 0 0 0 0 0 0 1 2 3 1 0 1 2 3 3 3
0 0 0 0 0 0 0 0 0 0 0 0 0 0 0 0 0 0 0 0 0 0 0 0 0 0 0 0 0 0 0 0 0 0 1 2 3 2 1 0 1 2 3 3
0 0 0 0 0 0 0 0 0 0 0 0 0 0 0 0 0 0 0 0 0 0 0 0 0 0 0 0 0 0 0 0 0 0 1 2 3 2 1 0 0 1 2 3
0 0 0 0 0 0 0 0 0 0 0 0 0 0 0 0 0 0 0 0 0 0 0 0 0 0 0 0 0 0 0 0 0 0 1 2 3 2 1 0 0 0 1 2
0 0 0 0 0 0 0 0 0 0 0 0 0 0 0 0 0 0 0 0 0 0 0 0 0 0 0 0 0 0 0 0 0 0 1 2 3 2 1 0 0 0 1 2
0 0 0 0 0 0 0 0 0 0 0 0 0 0 0 0 0 0 0 0 0 0 0 0 0 0 0 0 0 0 0 0 0 0 1 3 3 1 0 0 0 0 0 1
0 0 0 0 0 0 0 0 0 0 0 0 0 0 0 0 0 0 0 0 0 0 0 0 0 0 0 0 0 0 0 0 0 1 2 4 3 1 0 0 0 0 0 0
0 0 0 0 0 0 0 0 0 0 0 0 0 0 0 0 0 0 0 0 0 0 0 0 0 0 0 0 0 0 0 0 0 1 3 4 3 1 0 0 0 0 0 0
0 0 0 0 0 0 0 0 0 0 0 0 0 0 0 0 0 0 0 0 0 0 0 0 0 0 0 0 0 0 0 0 1 2 3 3 2 1 0 0 0 0 0 0
0 0 0 0 0 0 0 0 0 0 0 0 0 0 0 0 0 0 0 0 0 0 0 0 0 0 0 0 0 0 0 0 2 3 3 3 2 1 1 0 0 1 1 0
0 0 0 0 0 0 0 0 0 0 0 0 0 0 0 0 0 0 0 0 0 0 0 0 0 0 0 0 0 0 0 0 1 2 2 2 1 0 0 0 0 1 1 1
0 0 0 0 0 0 0 0 0 0 0 0 0 0 0 0 0 0 0 0 0 0 0 0 0 0 0 0 0 0 0 0 0 1 1 1 0 0 0 0 0 1 1 0
Wind_Speed
4 5 1 4 4 4 4 3 1 3 1 1 2 3 4 2 2 2 3 3 3 3 3 1 1 1 2 2 3 3 3 2 2 2 1 1 0 1 1 1 2 2 2 2
5 1 3 2 3 4 4 3 1 2 1 1 2 4 4 3 4 4 5 4 3 2 1 1 1 2 1 2 3 3 3 3 2 2 2 1 1 0 0 1 2 2 2 1
2 3 0 3 3 3 1 4 4 2 2 2 1 4 4 3 2 2 2 3 3 3 3 1 1 1 1 1 2 2 3 2 2 2 2 2 2 2 2 2 1 2 2 1
1 2 1 2 1 3 3 4 4 3 1 2 0 4 6 3 3 3 3 2 2 2 2 1 1 1 1 1 1 2 2 2 2 3 3 4 2 1 1 1 1 1 1 1
2 1 1 1 2 4 3 1 3 2 2 1 1 2 7 1 3 5 5 4 3 3 2 2 2 1 1 1 2 2 2 2 2 2 3 3 2 1 0 1 1 1 1 1
2 1 1 1 1 2 3 5 5 5 4 1 3 3 7 4 6 4 4 4 4 3 2 2 1 1 1 1 1 2 2 2 2 2 3 3 3 2 2 1 0 1 1 1
4 4 2 1 2 3 4 5 3 4 3 5 2 3 8 6 5 5 5 5 4 3 3 2 1 1 1 1 1 1 2 1 1 2 2 2 3 3 2 1 1 0 1 1
0 4 3 1 2 3 2 6 6 3 4 5 2 5 7 4 3 2 3 3 3 3 3 3 2 2 1 1 1 1 2 1 1 2 1 1 2 2 1 1 1 1 2 2
3 4 3 1 0 5 3 2 4 5 1 2 5 6 7 1 2 1 1 2 3 3 3 3 2 2 2 1 1 1 2 2 1 2 2 1 1 1 1 1 1 1 1 1
5 2 3 3 3 3 3 6 4 4 2 4 5 5 5 4 4 2 3 4 3 3 3 3 2 2 2 2 2 1 2 2 1 1 2 1 1 2 2 1 1 1 2 1
3 2 3 3 1 2 2 3 3 3 3 4 4 7 5 6 5 6 6 5 4 4 4 4 3 2 2 1 1 1 1 1 0 1 1 2 2 2 1 1 2 2 2 1
2 4 2 5 4 2 3 4 6 4 3 3 3 9 4 4 4 5 5 4 3 3 3 3 2 2 1 2 1 1 1 1 2 2 2 2 2 2 2 2 3 2 2 2
4 4 2 5 5 2 0 2 3 4 3 4 4 9 3 2 3 3 4 4 3 3 2 2 2 2 2 2 2 2 2 2 2 2 2 2 2 2 3 3 3 3 3 3
4 4 6 7 6 3 3 3 3 4 4 5 8 10 8 6 5 5 4 4 4 4 3 3 3 3 3 3 2 2 2 2 2 2 2 2 3 3 3 3 3 3 3 3
4 3 4 6 6 4 6 7 6 7 8 8 9 9 11 8 7 6 4 3 3 4 4 5 4 3 3 2 3 2 3 3 3 2 3 4 3 3 2 3 3 3 3 3
2 2 1 3 4 5 7 9 8 8 7 8 7 10 8 5 3 3 3 4 5 5 6 5 5 4 4 4 4 3 3 3 3 3 4 4 3 3 3 3 3 2 2 3
2 3 2 4 4 4 7 7 7 5 5 6 8 9 4 3 4 5 5 5 6 6 5 5 5 5 5 5 5 5 5 3 3 4 4 4 3 3 4 4 3 3 3 3
6 4 2 1 1 6 8 3 4 5 6 6 6 5 4 4 4 4 3 5 6 5 5 5 5 5 4 4 4 4 3 3 4 4 4 4 4 4 3 3 4 4 3 3
5 6 3 2 3 8 8 3 3 4 6 5 5 4 4 2 2 4 3 4 5 5 4 4 4 4 4 4 4 3 3 3 4 4 5 5 4 4 4 4 5 4 3 4
3 4 4 3 3 7 7 3 1 2 5 4 3 4 2 1 1 6 4 3 3 3 3 3 2 2 3 4 3 3 4 4 5 6 6 5 5 5 5 5 4 3 4 4
2 2 3 4 5 9 7 2 2 2 7 3 3 4 3 5 6 5 3 3 3 2 3 2 2 2 4 3 3 3 4 5 6 5 4 4 4 5 5 4 3 3 3 3
6 5 5 4 4 9 3 2 4 7 4 2 3 4 4 5 4 3 3 3 2 2 2 2 2 3 3 2 3 3 5 6 4 3 4 4 4 4 3 3 3 3 3 3
6 7 6 9 9 5 3 5 5 3 4 4 4 4 4 4 5 4 3 3 3 2 2 2 2 2 3 3 3 5 5 4 3 3 4 4 4 3 3 3 4 3 3 3
4 2 3 5 8 6 6 5 5 4 5 5 4 4 3 4 5 4 4 3 3 3 3 2 1 2 4 3 4 5 4 3 3 3 4 3 3 3 3 3 3 4 4 4
5 3 3 7 8 6 6 5 5 5 4 4 4 4 4 4 5 4 4 4 3 3 3 2 2 4 5 4 4 4 3 2 2 3 3 3 3 3 3 3 4 5 6 6
6 7 7 8 7 6 8 6 4 5 6 5 4 4 4 4 5 4 4 4 3 3 3 3 3 4 4 4 4 3 2 2 3 3 3 3 3 2 2 2 3 5 6 8
Wind_Direction
32 71 134 207 191 178 154 146 211 266 278 116 217 249 269 253 223 230 230 225 224 243 267 304 102 106 126 124 138 148 140 142 136 136 144 136 134 25 33 37 34 41 43 46
42 356 243 167 127 117 129 132 231 299 339 151 247 274 269 231 222 220 219 220 216 224 312 352 52 74 110 158 163 155 158 161 159 169 167 148 137 118 75 13 22 26 39 40
155 254 224 120 107 112 167 177 197 216 359 34 34 313 282 264 242 240 236 222 210 193 201 210 103 110 94 98 152 155 169 165 155 131 106 86 70 48 36 9 1 359 12 25
241 285 110 111 151 147 240 224 179 162 110 286 104 286 278 257 277 251 239 221 214 210 192 173 158 149 154 180 123 119 139 139 141 137 132 131 131 157 214 241 284 348 13 8
279 286 113 172 222 174 215 108 112 109 127 355 320 229 284 294 256 250 234 222 219 209 188 179 179 187 188 123 117 111 119 124 130 132 145 140 135 144 108 56 45 2 351 359
277 301 200 199 48 126 116 69 58 53 68 306 239 193 275 241 228 240 228 221 214 203 189 183 171 100 64 60 90 95 101 121 128 127 128 136 140 127 108 69 38 336 331 343
342 336 340 91 69 28 77 84 32 359 3 258 253 208 251 251 235 220 214 214 211 195 173 168 144 114 89 77 104 107 106 102 126 134 144 154 152 146 155 181 195 246 315 319
117 296 301 348 166 166 153 137 156 206 235 278 298 239 256 265 271 243 199 188 184 192 183 178 187 177 176 182 157 134 130 116 135 148 163 154 154 159 176 188 193 218 240 249
177 258 299 316 255 134 131 158 162 141 196 273 280 285 299 325 352 15 144 160 193 198 191 187 182 183 185 188 194 176 154 146 163 174 163 151 155 163 196 207 193 220 262 270
157 241 296 313 48 31 136 143 101 119 171 267 287 276 260 265 259 242 216 207 214 205 199 197 193 198 205 199 189 167 167 181 195 194 182 163 193 206 205 193 227 244 261 277
124 160 310 355 206 199 90 100 107 116 158 177 269 271 234 227 222 218 224 219 216 217 210 203 204 202 205 202 177 178 178 179 217 231 203 181 205 215 203 213 235 240 254 254
122 122 257 268 269 224 179 175 150 162 226 190 218 269 275 239 236 223 228 224 220 218 208 199 193 189 202 212 209 205 199 213 233 229 212 202 210 208 209 234 243 239 250 250
132 112 24 338 337 352 189 183 161 141 138 178 205 263 286 299 276 248 236 228 222 214 198 190 190 202 215 221 221 220 223 228 238 232 224 215 218 217 226 237 241 235 238 243
117 137 178 211 233 238 259 248 195 155 185 219 227 255 282 287 276 266 248 229 224 211 199 197 210 219 222 231 231 231 241 235 230 229 235 230 231 231 238 243 240 234 230 227
109 184 226 242 254 249 248 248 228 217 213 215 242 247 263 261 249 248 234 219 224 222 213 210 215 222 224 234 241 233 237 242 236 233 243 242 241 241 246 252 249 243 232 232
101 174 225 280 272 263 264 255 239 232 231 237 257 265 264 270 256 251 233 216 220 227 226 221 219 218 220 221 231 237 238 236 226 231 246 247 242 243 243 246 248 246 244 242
155 146 153 268 298 321 271 239 218 222 222 206 233 253 282 297 259 242 231 220 222 232 230 224 223 225 226 220 219 228 235 230 224 232 242 239 233 237 242 244 245 242 240 239
155 145 157 244 359 247 247 239 205 222 246 229 247 266 253 248 260 267 234 215 230 231 225 227 228 234 236 232 228 229 232 222 223 234 244 239 229 235 240 234 237 241 241 235
163 149 147 156 231 274 289 266 194 204 262 236 237 267 283 312 348 309 265 222 227 227 224 225 228 230 230 231 229 220 231 228 229 238 243 238 228 231 236 239 240 239 236 239
84 116 134 154 203 247 253 269 227 124 277 257 213 237 262 79 310 281 276 247 241 238 233 229 224 224 222 234 218 211 232 232 236 239 242 238 227 225 231 237 244 244 238 242
88 102 165 187 226 260 257 273 97 170 252 274 222 224 207 216 235 269 289 268 249 244 245 233 222 231 228 217 193 216 236 242 246 246 245 240 231 230 230 233 238 237 239 245
183 180 193 171 210 254 253 129 186 227 259 258 241 230 225 248 271 285 284 276 271 271 265 235 235 266 258 221 200 222 241 249 253 248 240 241 239 237 231 220 232 228 222 231
204 196 192 195 218 244 221 221 245 244 256 258 245 246 228 252 267 270 269 268 269 258 254 250 231 265 274 247 216 224 245 246 242 245 243 244 246 238 226 217 220 225 222 227
253 194 196 252 262 261 262 263 268 264 262 268 260 250 242 252 259 260 260 261 263 264 260 260 242 259 273 266 251 239 245 235 225 236 245 246 241 241 236 229 220 222 224 229
224 190 223 256 272 291 278 258 266 276 276 276 280 260 241 241 259 255 254 253 253 264 273 260 245 251 265 271 267 258 248 218 229 243 245 244 236 230 234 238 233 233 234 231
203 197 204 238 242 239 265 269 267 266 269 269 274 279 268 243 249 254 252 248 247 256 265 268 266 263 269 273 273 270 255 220 220 243 246 238 229 229 231 240 272 272 263 266